Weather History for Ozark, AL

Change the Weather History Date:

Wednesday, April 30, 2014

  Actual Average Record
Temperature  
Mean Temperature 68 °F -  
Max Temperature 73 °F 77 °F 93 °F (2012)
Min Temperature 64 °F 56 °F 43 °F (2008)
Cooling Degree Days 3    
Growing Degree Days 18 (Base 50)    
Moisture  
Dew Point 64 °F    
Average Humidity 94    
Maximum Humidity 100    
Minimum Humidity 76    
Precipitation  
Precipitation 2.47 in - - ()
Sea Level Pressure  
Sea Level Pressure 29.92 in    
Wind  
Wind Speed 8 mph (SE)    
Max Wind Speed 18 mph    
Max Gust Speed 34 mph    
Visibility 6 miles    
Events Fog , Rain , Thunderstorm    
Averages and records for this station are not official NWS values.
T = Trace of Precipitation, MM = Missing Value Source: NWS Daily Summary

Daily Weather History Graph

Daily Weather History Graph

Search for Another Location

Airport:

Trip Planner

Search our weather history database for the weather conditions in past years. The results will help you decide how hot, cold, wet, or windy it might be!

Date:

Astronomy

Apr. 30, 2014 Rise Set
Actual Time 5:58 AM CDT 7:21 PM CDT
Civil Twilight 5:33 AM CDT 7:47 PM CDT
Nautical Twilight 5:02 AM CDT 8:18 PM CDT
Astronomical Twilight 4:30 AM CDT 8:49 PM CDT
Moon 7:01 AM CDT (4/30) 8:56 PM CDT (4/30)
Length of Visible Light 14h 13m
Length of Day
13h 22m
New Moon, 2% of the Moon is Illuminated
Apr 30
New Moon
May 6
First Quarter
May 14
Full
May 21
Last Quarter
May 28
New

Hourly Weather History & Observations

Time (CDT) Temp. Dew Point Humidity Pressure Visibility Wind Dir Wind Speed Gust Speed Precip Events Conditions
12:13 AM 64.4 °F 62.6 °F 94% 29.94 in 2.5 mi NE 5.8 mph - N/A Rain , Thunderstorm Heavy Thunderstorms and Rain
12:18 AM 64.4 °F 62.6 °F 94% 29.94 in 1.2 mi NNE 6.9 mph - N/A Rain , Thunderstorm Heavy Thunderstorms and Rain
12:23 AM 64.4 °F 62.6 °F 94% 29.94 in 0.8 mi ENE 4.6 mph - N/A Rain , Thunderstorm Heavy Thunderstorms and Rain
12:28 AM 64.4 °F 62.6 °F 94% 29.94 in 1.0 mi Variable 5.8 mph - N/A Rain , Thunderstorm Thunderstorms and Rain
12:33 AM 64.4 °F 62.6 °F 94% 29.94 in 2.0 mi NE 6.9 mph - N/A Rain , Thunderstorm Thunderstorms and Rain
12:53 AM 64.4 °F 62.6 °F 94% 29.95 in 1.2 mi NE 5.8 mph - N/A Rain , Thunderstorm Heavy Thunderstorms and Rain
12:58 AM 64.6 °F 63.3 °F 96% 29.94 in 1.0 mi NNE 12.7 mph - 0.73 in Rain , Thunderstorm Heavy Thunderstorms and Rain
1:03 AM 64.4 °F 64.4 °F 100% 29.92 in 2.5 mi NNE 10.4 mph - N/A Rain , Thunderstorm Heavy Thunderstorms and Rain
1:08 AM 64.4 °F 64.4 °F 100% 29.91 in 4.0 mi NNE 10.4 mph - N/A Rain , Thunderstorm Thunderstorms and Rain
1:13 AM 64.4 °F 64.4 °F 100% 29.90 in 1.5 mi NNE 11.5 mph - N/A Rain , Thunderstorm Heavy Thunderstorms and Rain
1:23 AM 64.4 °F 64.4 °F 100% 29.89 in 2.5 mi NNE 10.4 mph - N/A Rain , Thunderstorm Heavy Thunderstorms and Rain
1:33 AM 64.4 °F 64.4 °F 100% 29.91 in 3.0 mi Variable 4.6 mph - N/A Rain , Thunderstorm Light Thunderstorms and Rain
1:36 AM 64.4 °F 64.4 °F 100% 29.90 in 3.0 mi Variable 6.9 mph - N/A Rain , Thunderstorm Light Thunderstorms and Rain
1:41 AM 64.4 °F 64.4 °F 100% 29.90 in 1.0 mi ESE 5.8 mph - N/A Rain , Thunderstorm Heavy Thunderstorms and Rain
1:46 AM 64.4 °F 64.4 °F 100% 29.87 in 0.5 mi Variable 4.6 mph - N/A Fog , Rain , Thunderstorm Heavy Thunderstorms and Rain
1:51 AM 64.4 °F 64.4 °F 100% 29.86 in 1.0 mi NNE 8.1 mph - N/A Rain , Thunderstorm Heavy Thunderstorms and Rain
1:56 AM 64.4 °F 64.4 °F 100% 29.86 in 3.0 mi Variable 6.9 mph - N/A Rain , Thunderstorm Thunderstorms and Rain
1:58 AM 64.4 °F 64.4 °F 100% 29.86 in 3.0 mi Variable 6.9 mph - 0.68 in Rain , Thunderstorm Thunderstorms and Rain
2:28 AM 66.2 °F 64.4 °F 94% 29.89 in 2.5 mi East 8.1 mph - N/A Rain , Thunderstorm Thunderstorms and Rain
2:33 AM 66.2 °F 64.4 °F 94% 29.86 in 3.0 mi East 4.6 mph - N/A Rain , Thunderstorm Light Thunderstorms and Rain
2:54 AM 64.4 °F 64.4 °F 100% 29.85 in 8.0 mi Variable 6.9 mph - N/A Rain Light Rain
2:58 AM 65.3 °F 64.4 °F 97% 29.86 in 7.0 mi East 6.9 mph - 0.18 in Rain Light Rain
3:02 AM 66.2 °F 64.4 °F 94% 29.87 in 7.0 mi East 6.9 mph - N/A Rain , Thunderstorm Light Thunderstorms and Rain
3:17 AM 66.2 °F 64.4 °F 94% 29.87 in 6.0 mi Variable 6.9 mph - N/A Rain Light Rain
3:23 AM 66.2 °F 64.4 °F 94% 29.87 in 4.0 mi NE 5.8 mph - N/A Rain , Thunderstorm Thunderstorms and Rain
3:38 AM 66.2 °F 64.4 °F 94% 29.87 in 5.0 mi Variable 5.8 mph - N/A Rain Light Rain
3:56 AM 66.2 °F 64.4 °F 94% 29.88 in 5.0 mi Variable 5.8 mph - N/A Rain , Thunderstorm Light Thunderstorms and Rain
3:58 AM 66.2 °F 64.4 °F 94% 29.88 in 5.0 mi Variable 6.9 mph - 0.20 in Rain , Thunderstorm Light Thunderstorms and Rain
4:11 AM 66.2 °F 64.4 °F 94% 29.88 in 6.0 mi East 6.9 mph - N/A Rain Light Rain
4:25 AM 64.4 °F 64.4 °F 100% 29.86 in 6.0 mi East 8.1 mph - N/A Rain , Thunderstorm Light Thunderstorms and Rain
4:40 AM 66.2 °F 64.4 °F 94% 29.84 in 5.0 mi Variable 5.8 mph - N/A Rain Rain
4:57 AM 66.2 °F 64.4 °F 94% 29.87 in 7.0 mi Variable 6.9 mph - N/A Rain , Thunderstorm Light Thunderstorms and Rain
4:58 AM 66.2 °F 64.4 °F 94% 29.87 in 7.0 mi Variable 6.9 mph - 0.13 in Rain , Thunderstorm Light Thunderstorms and Rain
5:12 AM 66.2 °F 64.4 °F 94% 29.87 in 5.0 mi ESE 8.1 mph - N/A Rain , Thunderstorm Rain
5:45 AM 64.4 °F 64.4 °F 100% 29.85 in 5.0 mi ESE 12.7 mph 21.9 mph N/A Rain Rain
5:55 AM 64.4 °F 64.4 °F 100% 29.86 in 6.0 mi ESE 15.0 mph 29.9 mph N/A Rain , Thunderstorm Light Thunderstorms and Rain
5:58 AM 65.1 °F 63.9 °F 96% 29.86 in 6.0 mi SE 16.1 mph 29.9 mph 0.17 in Rain , Thunderstorm Light Thunderstorms and Rain
6:58 AM 64.4 °F 64.4 °F 100% 29.86 in 7.0 mi ESE 13.8 mph 20.7 mph 0.10 in Rain , Thunderstorm Light Thunderstorms and Rain
7:07 AM 64.4 °F 64.4 °F 100% 29.85 in 10.0 mi SE 13.8 mph 21.9 mph N/A Rain Light Rain
7:12 AM 64.4 °F 64.4 °F 100% 29.86 in 10.0 mi SE 13.8 mph 23.0 mph N/A Rain Light Rain
7:28 AM 66.2 °F 64.4 °F 94% 29.89 in 10.0 mi South 8.1 mph 17.3 mph N/A Rain , Thunderstorm Light Thunderstorms and Rain
7:37 AM 66.2 °F 64.4 °F 94% 29.94 in 10.0 mi SSW 10.4 mph 17.3 mph N/A Rain Light Rain
8:01 AM 66.2 °F 64.4 °F 94% 29.98 in 5.0 mi South 12.7 mph 19.6 mph N/A Rain , Thunderstorm Thunderstorms and Rain
8:06 AM 66.2 °F 64.4 °F 94% 29.92 in 2.5 mi SE 13.8 mph 19.6 mph N/A Rain , Thunderstorm Heavy Thunderstorms and Rain
8:07 AM 66.2 °F 64.4 °F 94% 29.92 in 2.5 mi SE 15.0 mph 19.6 mph N/A Rain , Thunderstorm Heavy Thunderstorms and Rain
8:12 AM 64.4 °F 64.4 °F 100% 29.89 in 1.8 mi ESE 12.7 mph 19.6 mph N/A Rain , Thunderstorm Thunderstorms and Rain
8:17 AM 64.4 °F 64.4 °F 100% 29.88 in 3.0 mi ESE 10.4 mph 19.6 mph N/A Rain , Thunderstorm Light Thunderstorms and Rain
8:50 AM 64.4 °F 64.4 °F 100% 29.89 in 8.0 mi SSE 15.0 mph 27.6 mph N/A Rain , Thunderstorm Light Thunderstorms and Rain
8:55 AM 64.4 °F 64.4 °F 100% 29.90 in 10.0 mi SSE 17.3 mph 24.2 mph N/A Rain , Thunderstorm Light Thunderstorms and Rain
9:08 AM 64.4 °F 64.4 °F 100% 29.83 in 10.0 mi SE 17.3 mph 34.5 mph N/A Rain , Thunderstorm Light Thunderstorms and Rain
9:33 AM 66.2 °F 64.4 °F 94% 29.98 in 10.0 mi SW 12.7 mph 17.3 mph N/A Rain , Thunderstorm Light Thunderstorms and Rain
9:38 AM 66.2 °F 64.4 °F 94% 29.95 in 5.0 mi Variable 3.5 mph 17.3 mph N/A Rain , Thunderstorm Light Thunderstorms and Rain
9:43 AM 66.2 °F 64.4 °F 94% 29.95 in 1.0 mi WNW 3.5 mph 17.3 mph N/A Rain , Thunderstorm Heavy Thunderstorms and Rain
9:53 AM 66.2 °F 64.4 °F 94% 29.87 in 4.0 mi East 8.1 mph 18.4 mph N/A Rain , Thunderstorm Light Thunderstorms and Rain
9:58 AM 65.5 °F 63.5 °F 93% 29.96 in 9.0 mi Variable 4.6 mph 18.4 mph 0.27 in Rain , Thunderstorm Light Thunderstorms and Rain
10:03 AM 66.2 °F 64.4 °F 94% 29.91 in 10.0 mi East 9.2 mph 18.4 mph N/A Rain , Thunderstorm Light Thunderstorms and Rain
10:19 AM 66.2 °F 64.4 °F 94% 29.95 in 10.0 mi SE 10.4 mph 17.3 mph N/A   Overcast
11:33 AM 66.2 °F 64.4 °F 94% 29.98 in 10.0 mi SSE 15.0 mph 24.2 mph N/A   Overcast
12:58 PM 68.5 °F 64.8 °F 88% 29.98 in 10.0 mi SSE 18.4 mph 25.3 mph 0.01 in   Partly Cloudy
2:58 PM 71.2 °F 64.9 °F 80% 29.96 in 10.0 mi South 17.3 mph 32.2 mph N/A   Scattered Clouds
3:58 PM 70.9 °F 64.4 °F 80% 29.91 in 10.0 mi South 12.7 mph 28.8 mph N/A   Clear
4:58 PM 72.5 °F 64.6 °F 76% 29.92 in 10.0 mi South 13.8 mph 23.0 mph N/A   Partly Cloudy
5:58 PM 72.7 °F 65.1 °F 77% 29.94 in 10.0 mi SW 10.4 mph - N/A   Partly Cloudy
6:58 PM 71.8 °F 64.9 °F 79% 29.96 in 10.0 mi SW 15.0 mph 19.6 mph N/A   Scattered Clouds
7:18 PM 71.6 °F 64.4 °F 78% 29.95 in 10.0 mi SW 12.7 mph - N/A   Light Drizzle
7:28 PM 69.8 °F 64.4 °F 83% 29.94 in 10.0 mi SSW 6.9 mph - N/A   Mostly Cloudy
7:58 PM 69.4 °F 65.3 °F 87% 29.96 in 10.0 mi WSW 9.2 mph - 0.00 in   Scattered Clouds
8:58 PM 67.8 °F 64.9 °F 90% 29.96 in 10.0 mi SW 6.9 mph - N/A   Scattered Clouds
9:48 PM 68.0 °F 64.4 °F 88% 29.98 in 10.0 mi WSW 8.1 mph - N/A   Mostly Cloudy
9:58 PM 67.6 °F 65.7 °F 93% 29.99 in 10.0 mi SW 5.8 mph - N/A   Mostly Cloudy
10:08 PM 68.0 °F 66.2 °F 94% 29.98 in 10.0 mi SW 5.8 mph - N/A   Overcast
10:53 PM 68.0 °F 66.2 °F 94% 29.99 in 10.0 mi SW 8.1 mph - N/A   Overcast
10:58 PM 68.0 °F 65.7 °F 92% 30.01 in 10.0 mi SW 9.2 mph - N/A   Overcast
11:28 PM 68.0 °F 66.2 °F 94% 30.01 in 10.0 mi SW 9.2 mph - N/A   Overcast
11:33 PM 68.0 °F 66.2 °F 94% 30.00 in 10.0 mi SW 9.2 mph - N/A   Overcast
11:38 PM 68.0 °F 66.2 °F 94% 30.00 in 10.0 mi SW 8.1 mph - N/A   Mostly Cloudy
11:43 PM 68.0 °F 66.2 °F 94% 30.00 in 10.0 mi SW 8.1 mph - N/A   Mostly Cloudy
11:58 PM 67.8 °F 65.8 °F 93% 30.01 in 10.0 mi SSW 6.9 mph - N/A   Mostly Cloudy